Location: Unspecified
(0.0000°N, 0.0000°E)
Time: 04:47:28
(UTC+00:00)

Explorer 7 - Pass Details

Date: 09 October 2020
Orbit: 484 x 678 km, 50.3° (Epoch: 28 October)

Event Time Altitude Azimuth Distance (km) Brightness Sun altitude
Rises 06:48:51 0° 298° (WNW) 3,013 10.0 15.3°
Reaches altitude 10° 06:51:41 10° 283° (WNW) 2,091 9.2 16.0°
Maximum altitude 06:55:23 22° 233° (SW) 1,439 8.7 16.9°
Drops below altitude 10° 06:59:01 10° 183° (S) 2,038 9.8 17.8°
Sets 07:01:45 0° 167° (SSE) 2,917 10.8 18.5°
